FLOCK 4P-2 (44813 NORAD) Tracking and Keplerian Element Data

This shows tracking and keplerian element data for the satellite.

Feedback or suggestion? Click here.




ElementValue
Catalog44813
NameFLOCK 4P-2
Epoch Orbit783
Epoch Day17.76622153
Epoch Year2020
RAAN79.6151
Inclination97.5177
Eccentricity0.0013496
Argument of Perigee62.5604
Mean Anonmoly297.7001
Mean Motion15.19579288
Decay Rate4.7E-06
L11 44813U 19081K 20017.76622153 .00000470 00000-0 25316-4 0 9993
L22 44813 97.5177 79.6151 0013496 62.5604 297.7001 15.19579288 7832

Live tracking and technical data element details for FLOCK 4P-2 (NORAD 44813). FLOCK 4P-2 can be tracked NOW for your location showing map with azimuth and elevation plus other details from your city location.

Track the satellite on the map from your city or location and see movement details for azimuth, elevation, latitude, longitude, range, height, and movement on the map or in text.







IsCatalogInMostPopularTable: catalog: 44813, numindb: 10
Update: records affected: 1



GetName: 44813 FLOCK 4P-2

Hit Count: updated at: Sat, 18 Jan 2020 18:18:55 GMT